Terminal Aerodrome Forecast
Issued by NWS Rapid City, SD

Home | Current Version | Previous Version | Text Only | Print | Product List | Glossary On
Versions: 1 2 3 4 5 6 7 8 9 10 11 12
000
FTUS43 KUNR 231700
TAFRAP
TAF
KRAP 231720Z 2318/2418 34009KT P6SM SCT100
     FM240000 30005KT P6SM SKC=

USA.gov is the U.S. government's official web portal to all federal, state and local government web resources and services.